Wind_Speed
32 30 30 29 29 28 26 24 24 23 23 22 21 21 20 19 18 17 16 16 15 14 14 14 13 13 12 11 11 11 11 11 10 10 9 9 9 9 9 9 9 9 10 10 9 9 9 9 10
33 32 32 31 31 29 26 25 24 24 24 23 23 22 21 20 19 17 17 17 16 16 15 15 14 14 13 13 12 12 12 12 12 11 11 10 10 10 10 10 11 11 11 11 11 10 10 10 10
34 34 34 33 32 30 27 26 25 25 25 24 24 23 22 20 19 18 18 18 18 17 17 16 16 15 15 14 14 13 13 13 13 13 13 12 12 12 12 12 12 12 12 12 12 12 12 12 11
36 35 35 34 32 30 29 28 27 26 25 25 25 24 23 22 20 19 19 19 19 19 18 17 17 16 16 16 15 15 15 15 14 14 14 14 14 14 14 14 14 14 14 14 14 14 14 14 14
37 37 36 34 33 31 30 30 28 27 26 26 25 25 24 23 22 21 21 21 20 20 19 19 18 18 17 17 17 17 16 16 16 16 16 16 16 16 16 16 16 16 16 16 16 16 16 16 16
38 38 37 34 32 31 31 31 30 29 28 27 26 26 25 24 23 23 23 22 22 21 21 20 19 19 19 18 18 18 18 18 18 18 18 18 18 18 18 18 17 17 17 17 17 17 17 17 18
38 38 37 35 34 32 32 31 30 29 28 28 27 27 26 25 24 24 23 23 23 22 22 21 21 20 20 20 20 20 20 19 19 19 19 20 20 19 19 18 19 19 18 18 18 18 18 19 19
39 39 38 36 35 33 32 32 31 30 29 28 28 27 26 26 25 25 25 24 24 24 23 23 22 22 22 22 22 21 21 20 20 21 21 20 20 20 20 20 20 20 20 20 20 20 20 20 20
39 40 39 37 36 34 34 34 33 32 30 29 28 28 28 27 26 26 26 26 25 25 24 24 24 24 24 23 23 23 22 22 22 22 22 21 21 21 21 21 21 21 21 20 21 21 21 21 22
41 40 38 38 37 36 35 35 34 33 32 31 29 29 28 27 27 26 26 26 26 26 26 26 25 25 25 25 25 24 24 23 23 23 22 22 22 22 22 22 22 22 22 22 22 22 23 23 23
42 40 38 38 38 37 37 36 36 34 33 32 30 29 29 28 28 27 26 26 26 27 27 26 26 26 26 26 25 25 25 24 24 24 24 23 23 23 23 23 23 23 23 23 23 23 24 24 24
44 42 40 39 39 38 38 37 37 35 34 33 32 31 31 30 29 28 27 26 26 27 27 27 27 27 27 26 26 26 25 25 25 24 24 24 24 24 24 24 25 25 25 25 24 24 24 25 25
44 43 42 41 40 39 39 38 38 36 35 35 33 32 31 31 30 29 28 27 27 27 27 28 27 27 27 27 26 26 26 25 25 25 25 25 25 25 25 25 26 26 26 25 25 26 26 26 27
44 44 43 42 41 40 40 39 38 37 37 36 34 33 32 32 31 31 29 28 28 28 28 28 28 28 28 27 27 26 26 26 27 26 26 25 25 25 26 26 26 26 27 27 27 27 27 28 28
45 44 44 42 42 41 42 41 38 37 38 36 35 34 33 33 32 31 31 30 29 28 28 27 28 28 28 28 27 27 27 27 27 27 27 27 26 26 27 27 27 27 27 28 28 29 29 30 30
46 46 45 43 42 42 43 40 38 39 38 37 36 35 34 33 32 32 32 31 30 29 29 28 28 28 28 28 28 28 28 28 28 28 28 28 28 28 28 28 29 29 29 29 30 31 31 32 32
48 47 45 43 43 43 43 41 40 40 39 38 37 36 35 34 33 32 32 32 31 30 30 30 29 29 29 29 29 29 29 29 30 30 30 30 30 30 30 31 31 31 32 32 33 33 33 34 34
46 46 45 45 44 44 43 41 40 41 40 39 38 37 36 35 34 33 32 32 32 32 32 31 31 30 31 31 31 31 31 31 31 31 31 32 32 32 32 33 33 34 34 35 35 36 36 36 36
46 46 46 45 44 44 44 42 41 41 41 39 38 38 37 36 35 34 34 33 32 32 33 33 32 32 32 33 33 33 33 33 33 33 33 34 34 34 34 35 35 36 36 37 37 37 37 37 38
46 47 45 44 44 45 45 43 42 42 41 40 39 38 38 37 37 36 34 34 33 33 33 33 33 33 34 34 34 34 34 35 35 35 35 35 35 35 35 36 36 37 38 38 39 39 39 39 39
45 45 45 44 45 46 46 45 43 43 42 41 40 39 39 38 38 37 36 35 34 34 34 35 35 35 35 35 35 35 35 36 36 36 36 36 36 36 36 37 38 38 39 40 40 40 40 40 41
44 43 43 43 44 45 46 46 44 43 43 42 41 40 39 39 39 38 38 37 36 36 36 36 36 37 36 36 36 36 37 37 37 37 37 37 37 37 38 38 39 39 40 41 41 41 41 42 43
41 41 42 43 44 45 45 46 45 43 42 41 41 40 39 39 40 39 39 38 38 38 37 37 37 38 38 38 38 38 38 38 38 38 38 38 38 39 39 40 40 41 41 42 42 42 42 43 44
40 41 42 42 44 46 44 46 45 42 40 40 40 40 40 40 40 40 39 39 39 39 39 39 38 38 39 39 39 39 39 39 39 39 39 40 40 40 40 41 41 42 43 43 44 43 44 45 46
41 42 42 43 45 46 44 46 45 41 40 39 39 40 40 40 41 41 41 41 40 40 40 40 40 40 40 40 40 40 40 40 40 41 41 41 41 42 42 42 43 43 44 45 45 45 45 46 47
41 42 43 44 45 46 45 46 44 41 39 39 39 40 40 40 40 41 42 42 42 42 41 41 41 40 41 41 41 42 42 42 42 42 42 43 43 43 43 44 44 45 46 46 46 46 47 48 49
41 42 41 41 44 45 46 46 44 41 39 38 39 39 39 40 40 40 41 41 41 41 41 42 42 42 42 42 42 43 43 43 43 43 44 44 44 45 45 45 45 46 47 47 48 48 48 49 49
41 41 41 41 41 43 45 45 43 41 39 38 38 38 39 39 40 40 40 41 41 42 42 43 43 43 42 43 43 43 43 44 44 44 44 45 45 45 45 46 46 47 48 49 49 49 50 51 51
39 41 42 42 42 42 43 44 43 41 39 38 38 38 39 40 39 39 40 40 41 42 42 42 42 42 43 43 43 43 43 44 44 44 44 45 45 45 46 47 48 48 49 50 51 51 52 52 52
35 38 41 42 42 42 43 42 40 39 39 39 38 39 39 40 39 39 40 39 39 40 41 42 42 42 42 42 43 43 43 44 44 44 45 45 46 46 47 48 49 49 50 51 51 52 52 53 54
Wind_Direction
230 230 230 230 230 231 230 228 228 229 231 231 232 235 236 236 234 235 235 237 236 237 239 241 244 247 249 250 252 253 256 259 259 260 262 264 265 268 271 276 279 281 283 286 287 286 288 289 289
230 230 230 230 230 231 230 229 230 230 232 232 233 235 236 237 236 236 236 237 238 239 240 242 244 246 247 248 250 253 256 258 258 259 260 263 265 265 271 275 278 280 282 283 283 283 286 288 287
230 230 231 231 231 230 230 230 230 231 232 233 233 235 236 237 236 236 237 238 239 240 241 243 244 245 246 246 248 251 254 256 258 259 260 263 265 268 271 275 277 278 280 280 281 281 283 285 284
230 231 231 231 230 231 231 230 230 230 231 233 234 235 236 237 237 237 238 239 240 241 242 244 244 244 245 247 248 250 252 254 257 258 260 262 265 268 269 272 275 277 278 279 279 280 280 281 281
230 231 231 231 230 231 231 230 230 230 231 233 234 234 235 236 237 237 239 240 241 242 243 244 245 246 247 248 250 251 253 254 256 258 259 262 264 267 268 270 272 274 276 278 278 278 279 280 281
230 231 232 231 230 230 231 231 231 231 232 234 235 235 235 236 236 238 239 241 241 243 244 244 246 247 248 249 251 252 253 255 256 259 260 262 263 265 267 269 271 273 275 277 278 279 280 280 281
231 231 231 231 230 230 231 231 232 232 232 233 235 236 235 236 236 238 240 241 241 243 244 245 246 248 249 250 251 253 254 256 258 259 262 263 263 264 266 268 271 273 274 276 277 279 279 280 281
231 231 231 230 230 229 230 231 232 232 233 233 235 237 237 237 237 238 240 240 241 242 244 245 246 248 249 251 252 254 256 257 259 260 262 262 263 264 266 269 271 273 274 276 277 278 279 281 281
231 231 230 230 230 229 231 232 232 232 234 234 236 237 237 237 238 239 240 241 241 242 244 246 246 248 249 251 253 255 257 259 260 261 261 262 263 264 267 269 270 272 274 276 278 279 280 281 282
230 231 231 231 230 230 230 232 233 234 235 235 235 237 237 236 237 239 240 241 242 243 245 246 247 248 250 252 253 254 257 260 260 260 262 263 264 265 266 268 270 272 275 277 278 280 280 281 282
231 232 231 231 231 231 231 232 233 235 235 236 236 236 237 236 237 238 239 241 242 243 245 247 248 250 251 253 254 255 257 258 259 261 262 263 264 265 266 268 269 272 275 278 279 280 280 281 282
231 231 231 231 231 231 231 232 233 235 236 237 236 236 237 237 237 239 241 242 243 244 244 246 248 250 251 253 255 256 258 258 259 261 263 264 264 265 267 268 270 273 275 277 278 280 280 281 281
231 231 231 231 231 231 231 232 233 235 236 236 236 236 237 238 237 239 241 242 243 244 245 246 248 249 251 253 255 257 257 257 259 261 263 264 264 265 267 269 271 273 274 276 277 279 281 281 281
230 230 231 231 231 231 232 232 233 234 235 236 236 236 237 238 238 240 242 243 243 244 245 246 248 250 251 252 254 256 256 258 259 262 263 264 265 266 267 270 272 273 274 276 277 279 281 281 281
228 228 229 229 230 232 233 232 232 234 235 235 235 236 237 238 239 240 241 243 244 245 246 247 248 249 251 253 254 255 256 257 259 261 263 265 265 266 268 270 271 273 275 277 278 280 281 281 281
227 227 228 228 230 231 233 232 231 233 235 235 235 236 237 238 239 240 241 243 244 246 247 248 248 249 251 252 253 254 256 257 259 261 263 265 266 267 269 271 272 274 276 278 280 281 282 282 282
227 228 228 228 230 232 233 232 231 233 234 235 235 235 236 238 239 240 241 243 245 246 247 249 249 250 251 252 254 255 256 258 260 262 264 265 266 268 270 271 273 275 277 278 280 281 282 282 281
228 229 229 229 230 232 233 233 232 233 234 235 235 235 236 238 239 240 242 243 244 246 248 249 250 251 251 253 254 256 257 259 261 262 264 266 267 269 270 272 273 275 276 278 280 281 281 281 281
229 230 230 230 231 232 233 233 233 234 235 235 236 236 237 238 239 241 242 243 245 246 248 250 251 252 252 254 255 257 259 261 262 263 265 267 268 269 271 272 274 275 277 278 279 280 280 281 281
228 229 229 230 231 232 233 233 233 234 235 236 236 237 237 238 240 241 243 244 245 247 249 251 252 253 254 255 257 258 260 261 262 264 265 267 268 270 271 273 274 276 277 278 280 280 280 281 282
228 229 230 231 231 233 234 233 233 234 235 236 237 237 238 238 240 242 243 244 246 248 250 252 254 255 255 256 257 258 260 261 263 265 267 268 269 270 272 274 275 276 277 278 279 280 280 281 282
229 229 231 232 232 233 234 235 232 234 236 236 237 238 239 240 240 241 243 245 247 249 250 252 254 256 256 257 258 259 260 262 264 265 267 268 269 271 273 274 276 276 277 278 279 280 280 281 282
228 228 230 232 234 235 235 237 233 234 236 238 238 239 241 242 242 243 244 246 247 249 251 253 255 256 257 258 259 259 261 263 264 265 266 268 269 271 272 274 276 277 278 279 280 280 280 281 282
226 227 229 232 234 236 236 239 236 235 236 239 240 241 242 243 244 244 245 247 248 250 252 253 255 256 256 257 258 260 261 263 264 265 266 268 270 271 273 274 275 277 278 279 280 280 281 282 282
225 227 229 232 234 237 237 239 238 236 237 239 241 242 243 244 245 246 247 248 250 252 253 254 255 256 257 257 258 260 262 263 265 266 267 268 269 271 273 274 276 277 278 279 280 280 281 282 284
226 228 230 234 237 239 238 239 239 237 238 240 242 243 243 245 246 247 247 248 250 252 253 254 255 256 257 258 259 260 262 264 265 267 268 268 270 271 272 274 276 277 278 279 280 281 281 283 284
226 227 229 236 239 241 241 241 241 240 241 241 242 243 244 245 246 247 247 248 249 251 252 254 255 256 258 259 260 261 263 264 265 267 268 268 270 271 273 274 276 277 277 279 280 281 282 283 285
227 228 229 233 237 241 242 242 242 241 242 243 244 244 244 246 246 246 246 248 249 251 253 255 256 257 258 259 260 262 264 265 266 266 267 268 270 271 273 274 276 277 278 279 280 281 282 283 285
228 228 230 234 238 241 243 243 243 244 244 245 245 245 246 247 247 247 247 248 250 251 253 255 255 257 258 259 260 261 263 264 266 266 267 268 269 271 273 274 276 277 278 279 280 281 282 283 285
228 229 231 235 238 240 244 245 245 247 247 247 247 247 247 249 249 248 248 249 251 252 252 254 255 257 258 259 260 261 262 264 266 267 268 269 270 271 273 275 276 277 279 280 280 281 283 283 284
Height
5830 5833 5835 5838 5841 5843 5845 5848 5849 5851 5853 5855 5856 5857 5859 5862 5864 5868 5868 5867 5869 5870 5871 5872 5873 5874 5874 5875 5876 5877 5878 5878 5879 5880 5880 5881 5881 5881 5881 5881 5881 5881 5881 5881 5880 5880 5880 5879 5879
5825 5828 5831 5833 5835 5838 5841 5844 5846 5848 5850 5851 5853 5854 5856 5858 5861 5863 5864 5865 5866 5867 5869 5870 5871 5872 5873 5874 5875 5876 5876 5877 5878 5878 5879 5879 5880 5880 5880 5880 5880 5880 5879 5879 5879 5879 5878 5878 5877
5820 5823 5826 5828 5830 5834 5838 5840 5842 5844 5846 5848 5849 5851 5853 5855 5857 5859 5861 5862 5863 5865 5866 5867 5868 5869 5871 5872 5873 5874 5875 5875 5876 5876 5877 5877 5878 5878 5878 5878 5878 5878 5878 5877 5877 5877 5876 5876 5875
5814 5817 5820 5823 5826 5830 5833 5835 5837 5840 5842 5844 5846 5848 5850 5852 5854 5856 5857 5859 5860 5862 5863 5864 5866 5867 5868 5869 5871 5872 5872 5873 5874 5874 5875 5875 5876 5876 5876 5876 5876 5876 5875 5875 5875 5874 5874 5874 5873
5808 5811 5814 5818 5822 5825 5828 5830 5833 5835 5838 5839 5842 5844 5846 5848 5850 5852 5853 5855 5857 5858 5860 5861 5863 5864 5866 5867 5868 5869 5870 5871 5872 5872 5873 5873 5873 5874 5874 5874 5874 5873 5873 5873 5872 5872 5871 5871 5870
5802 5805 5809 5813 5817 5820 5822 5825 5828 5831 5833 5835 5837 5840 5842 5844 5846 5848 5850 5852 5854 5855 5857 5858 5860 5861 5862 5864 5865 5866 5867 5868 5869 5869 5870 5870 5871 5871 5871 5871 5871 5871 5870 5870 5869 5869 5868 5868 5867
5796 5799 5803 5807 5811 5814 5817 5819 5823 5826 5828 5831 5833 5835 5837 5840 5842 5844 5846 5848 5850 5851 5853 5855 5856 5858 5859 5860 5862 5863 5864 5865 5866 5866 5867 5867 5867 5868 5868 5868 5868 5867 5867 5867 5866 5866 5865 5864 5864
5789 5793 5796 5800 5805 5809 5812 5814 5817 5820 5823 5826 5828 5831 5833 5836 5838 5840 5842 5844 5846 5847 5849 5851 5853 5854 5856 5857 5858 5859 5860 5861 5862 5863 5863 5864 5864 5864 5864 5864 5864 5864 5864 5863 5863 5862 5861 5861 5860
5781 5786 5789 5795 5799 5803 5805 5808 5812 5815 5818 5821 5823 5826 5828 5831 5833 5835 5837 5839 5841 5843 5845 5847 5848 5850 5852 5853 5854 5855 5856 5857 5858 5859 5859 5860 5860 5860 5860 5860 5860 5860 5860 5859 5859 5858 5857 5857 5856
5773 5778 5784 5789 5792 5796 5799 5802 5805 5809 5812 5815 5818 5820 5823 5825 5828 5830 5833 5835 5837 5839 5841 5842 5844 5846 5847 5848 5850 5851 5852 5853 5854 5854 5855 5855 5856 5856 5856 5856 5856 5856 5856 5855 5854 5854 5853 5852 5851
5766 5772 5777 5780 5785 5789 5792 5796 5799 5802 5806 5810 5813 5815 5817 5820 5823 5825 5828 5830 5832 5834 5836 5838 5839 5841 5842 5844 5845 5846 5847 5848 5849 5850 5850 5851 5851 5852 5852 5852 5852 5851 5851 5851 5850 5849 5848 5847 5846
5759 5764 5768 5773 5777 5781 5785 5789 5792 5796 5800 5803 5806 5809 5811 5814 5817 5820 5822 5825 5827 5829 5831 5832 5834 5836 5837 5839 5840 5842 5843 5844 5844 5845 5846 5846 5846 5847 5847 5847 5847 5846 5846 5846 5845 5844 5843 5843 5842
5750 5756 5760 5765 5769 5773 5778 5782 5786 5789 5793 5796 5799 5803 5806 5808 5811 5814 5816 5819 5822 5823 5825 5827 5829 5831 5832 5834 5835 5837 5838 5838 5839 5840 5841 5841 5841 5842 5842 5842 5842 5841 5841 5840 5840 5839 5838 5837 5836
5742 5747 5751 5756 5761 5765 5770 5774 5779 5783 5785 5789 5793 5796 5799 5802 5805 5808 5811 5813 5816 5818 5820 5822 5823 5825 5827 5828 5830 5831 5832 5833 5834 5834 5835 5836 5836 5836 5837 5836 5836 5836 5835 5835 5834 5833 5833 5832 5830
5732 5738 5742 5748 5753 5757 5761 5767 5772 5776 5778 5782 5786 5790 5793 5796 5799 5802 5804 5807 5809 5812 5814 5816 5817 5819 5821 5823 5824 5825 5826 5827 5828 5829 5829 5830 5830 5831 5831 5831 5830 5830 5829 5829 5828 5827 5826 5825 5824
5722 5727 5733 5740 5744 5749 5754 5760 5765 5767 5771 5775 5779 5783 5786 5789 5792 5795 5798 5801 5803 5805 5807 5809 5811 5813 5815 5816 5818 5819 5820 5821 5822 5823 5823 5824 5824 5825 5825 5825 5824 5824 5823 5823 5822 5821 5820 5818 5817
5711 5718 5726 5732 5736 5740 5745 5752 5757 5759 5763 5768 5772 5776 5779 5782 5786 5788 5791 5794 5796 5798 5800 5802 5805 5807 5808 5810 5811 5813 5814 5815 5816 5816 5817 5817 5818 5818 5818 5818 5818 5817 5817 5816 5815 5814 5813 5811 5810
5705 5711 5717 5723 5728 5732 5737 5744 5748 5751 5755 5760 5764 5768 5772 5776 5779 5782 5784 5787 5789 5791 5793 5796 5798 5800 5801 5803 5804 5806 5807 5808 5809 5810 5810 5811 5811 5811 5811 5811 5810 5810 5809 5808 5807 5806 5805 5803 5802
5696 5702 5708 5715 5719 5723 5729 5734 5739 5742 5747 5752 5756 5760 5764 5768 5771 5774 5777 5779 5782 5784 5787 5789 5791 5792 5794 5796 5797 5798 5799 5801 5801 5802 5803 5803 5803 5803 5803 5803 5803 5802 5801 5800 5799 5798 5796 5795 5793
5686 5692 5699 5705 5710 5714 5719 5725 5730 5734 5739 5744 5748 5752 5757 5760 5763 5766 5769 5772 5775 5777 5779 5781 5783 5785 5786 5788 5790 5791 5792 5793 5793 5794 5794 5795 5795 5795 5795 5795 5794 5793 5793 5791 5790 5789 5787 5786 5784
5677 5684 5691 5696 5701 5704 5710 5715 5721 5726 5730 5735 5739 5743 5748 5751 5755 5758 5761 5764 5767 5769 5771 5773 5775 5776 5778 5780 5781 5782 5783 5784 5785 5786 5786 5786 5786 5786 5786 5786 5785 5784 5783 5782 5781 5779 5778 5776 5774
5669 5677 5682 5687 5691 5695 5701 5705 5713 5717 5721 5726 5731 5735 5739 5743 5746 5749 5753 5756 5758 5761 5763 5765 5766 5768 5770 5771 5772 5774 5775 5776 5777 5777 5777 5777 5777 5777 5777 5777 5776 5775 5774 5773 5771 5769 5768 5766 5764
5662 5668 5673 5677 5681 5686 5691 5695 5704 5709 5713 5718 5723 5727 5730 5734 5737 5741 5744 5747 5749 5752 5754 5756 5757 5759 5761 5762 5763 5765 5766 5767 5767 5768 5768 5768 5768 5768 5767 5767 5766 5765 5764 5762 5761 5759 5757 5755 5753
5654 5659 5664 5667 5671 5675 5682 5686 5693 5701 5706 5710 5714 5718 5721 5724 5728 5731 5734 5737 5740 5742 5745 5747 5749 5750 5751 5752 5754 5755 5756 5757 5758 5758 5758 5758 5758 5758 5757 5757 5756 5754 5753 5752 5750 5748 5746 5744 5742
5644 5650 5655 5658 5660 5667 5674 5676 5685 5692 5697 5701 5705 5708 5711 5715 5719 5722 5725 5728 5730 5732 5735 5737 5739 5740 5741 5742 5744 5745 5746 5747 5748 5748 5748 5748 5748 5748 5747 5746 5745 5744 5742 5740 5739 5737 5735 5733 5731
5637 5642 5647 5651 5655 5660 5664 5667 5677 5683 5688 5692 5695 5698 5701 5705 5709 5712 5715 5718 5720 5722 5724 5726 5728 5730 5731 5732 5734 5735 5736 5737 5737 5737 5737 5737 5737 5737 5736 5735 5734 5732 5730 5729 5727 5726 5724 5721 5719
5628 5633 5639 5643 5646 5650 5654 5660 5667 5673 5678 5682 5686 5689 5692 5696 5699 5702 5704 5707 5709 5712 5714 5716 5718 5719 5721 5722 5723 5724 5725 5726 5726 5726 5726 5726 5726 5725 5724 5723 5722 5720 5719 5717 5716 5714 5712 5709 5706
5621 5626 5630 5633 5637 5641 5646 5651 5658 5664 5669 5673 5677 5680 5683 5686 5689 5692 5694 5697 5699 5701 5703 5705 5706 5708 5710 5711 5712 5713 5714 5715 5715 5715 5715 5715 5714 5714 5713 5712 5710 5708 5707 5705 5703 5702 5699 5697 5694
5613 5618 5621 5625 5629 5633 5637 5645 5650 5655 5660 5664 5667 5670 5673 5676 5679 5681 5684 5686 5688 5690 5692 5694 5696 5697 5699 5700 5701 5702 5703 5703 5703 5703 5703 5703 5703 5702 5701 5700 5698 5696 5695 5693 5691 5689 5686 5683 5681
5605 5609 5614 5618 5622 5625 5629 5638 5641 5646 5649 5653 5657 5660 5663 5665 5668 5671 5673 5676 5677 5679 5681 5683 5685 5686 5687 5689 5690 5690 5691 5691 5692 5692 5691 5691 5691 5690 5689 5688 5686 5684 5682 5680 5678 5676 5673 5670 5667